Frenchville, ME

3:52 AM EST on December 17, 2017 (GMT -0500)
Northern Aroostook Regional

Weather History for KFVE - January, 2013

Change the Weather History Date:

Wednesday, January 16, 2013

  Actual Average Record
Temperature  
Mean Temperature 18 °F 8 °F  
Max Temperature 25 °F 17 °F 33 °F (1999)
Min Temperature 10 °F 0 °F -29 °F (2009)
Degree Days  
Heating Degree Days 47    
Month to date heating degree days 806  
Since 1 July heating degree days 4217  
Cooling Degree Days 0    
Month to date cooling degree days 0  
Year to date cooling degree days 0  
Moisture  
Dew Point 15 °F    
Average Humidity 83    
Maximum Humidity 96    
Minimum Humidity 60    
Precipitation  
Precipitation 0.02 in 0.03 in 0.27 in (1997)
Month to date precipitation 0.07 1.33  
Year to date precipitation 0.07 1.33  
Sea Level Pressure  
Sea Level Pressure 29.86 in    
Wind  
Wind Speed 7 mph (South)    
Max Wind Speed 16 mph    
Max Gust Speed 23 mph    
Visibility 7 miles    
Events Snow    
T = Trace of Precipitation, MM = Missing Value Source: NWS Daily Summary

Daily Weather History Graph

Daily Weather History Graph

Search for Another Location

Airport or City:

Trip Planner

Search our weather history database for the weather conditions in past years. The results will help you decide how hot, cold, wet, or windy it might be!

Date:

Astronomy

Jan. 16, 2013 Rise Set
Actual Time 7:14 AM EST 4:11 PM EST
Civil Twilight 6:40 AM EST 4:46 PM EST
Nautical Twilight 6:02 AM EST 5:24 PM EST
Astronomical Twilight 5:25 AM EST 6:00 PM EST
Moon 9:24 AM EST (1/16) 10:27 PM EST (1/16)
Length of Visible Light 10h 05m
Length of Day
8h 57m
Waxing Crescent, 28% of the Moon is Illuminated
Jan 16
Waxing Crescent
Jan 18
First Quarter
Jan 26
Full
Feb 3
Last Quarter
Feb 10
New

Hourly Weather History & Observations

Time (EST) Temp. Windchill Dew Point Humidity Pressure Visibility Wind Dir Wind Speed Gust Speed Precip Events Conditions
12:53 AM 14.0 °F 5.1 °F 3.9 °F 64% 30.16 in 10.0 mi SSW 5.8 mph - N/A   Overcast
1:53 AM 14.0 °F 8.2 °F 5.0 °F 67% 30.17 in 10.0 mi South 3.5 mph - N/A   Overcast
2:53 AM 14.0 °F 6.5 °F 6.8 °F 73% 30.10 in 10.0 mi SSW 4.6 mph - N/A   Overcast
3:53 AM 14.0 °F 8.2 °F 6.1 °F 71% 30.13 in 10.0 mi WSW 3.5 mph - N/A   Scattered Clouds
4:53 AM 12.9 °F 3.8 °F 6.1 °F 74% 30.13 in 10.0 mi SSW 5.8 mph - N/A   Partly Cloudy
5:53 AM 12.0 °F - 6.1 °F 77% 30.11 in 10.0 mi Calm Calm - N/A   Clear
6:53 AM 12.9 °F - 7.0 °F 77% 30.10 in 10.0 mi Calm Calm - N/A   Clear
7:53 AM 12.9 °F 5.2 °F 8.1 °F 81% 30.12 in 10.0 mi South 4.6 mph - N/A   Clear
8:53 AM 12.9 °F 5.2 °F 8.1 °F 81% 30.12 in - SSE 4.6 mph - N/A   Clear
9:53 AM 17.1 °F 7.6 °F 10.9 °F 77% 30.08 in - South 6.9 mph - N/A   Clear
10:53 AM 19.9 °F - 12.0 °F 71% 30.04 in 10.0 mi North - - N/A   Mostly Cloudy
11:53 AM 19.9 °F - 12.9 °F 74% 30.00 in 10.0 mi North - - N/A   Overcast
12:53 PM 21.9 °F 14.5 °F 14.0 °F 72% 29.96 in 10.0 mi SE 5.8 mph - N/A   Unknown
1:53 PM 24.8 °F 14.6 °F 14.0 °F 64% 29.86 in 10.0 mi South 10.4 mph 18.4 mph N/A   Overcast
2:53 PM 25.0 °F 12.6 °F 12.9 °F 60% 29.88 in 10.0 mi South 15.0 mph 23.0 mph N/A   Overcast
3:53 PM 23.0 °F 11.1 °F 17.1 °F 78% 29.86 in 10.0 mi South 12.7 mph 20.7 mph N/A   Overcast
4:15 PM 23.0 °F 11.7 °F 17.6 °F 80% 29.81 in 10.0 mi South 11.5 mph 18.4 mph N/A   Overcast
4:36 PM 21.2 °F 10.1 °F 17.6 °F 86% 29.81 in 10.0 mi South 10.4 mph - N/A   Overcast
4:53 PM 21.9 °F 12.5 °F 18.0 °F 85% 29.86 in 10.0 mi South 8.1 mph 16.1 mph N/A   Overcast
5:53 PM 21.9 °F 13.4 °F 19.0 °F 89% 29.83 in 5.0 mi SSE 6.9 mph - 0.00 in Snow Light Snow
6:15 PM 21.2 °F 11.7 °F 19.4 °F 93% 29.77 in 10.0 mi SSE 8.1 mph - 0.00 in   Overcast
6:44 PM 21.2 °F 10.1 °F 19.4 °F 93% 29.75 in 2.5 mi SSE 10.4 mph - 0.00 in Snow Light Snow
6:53 PM 21.0 °F 10.6 °F 19.0 °F 92% 29.80 in 2.0 mi SE 9.2 mph - 0.00 in Snow Light Snow
7:05 PM 21.2 °F 10.9 °F 19.4 °F 93% 29.74 in 4.0 mi SE 9.2 mph - 0.00 in Snow Light Snow
7:53 PM 21.9 °F 12.5 °F 19.0 °F 89% 29.77 in 4.0 mi South 8.1 mph - 0.00 in Snow Light Snow
8:15 PM 21.2 °F 9.5 °F 19.4 °F 93% 29.71 in 4.0 mi South 11.5 mph 19.6 mph 0.00 in Snow Light Snow
8:53 PM 21.9 °F 10.4 °F 19.0 °F 89% 29.74 in 2.5 mi South 11.5 mph - 0.00 in Snow Light Snow
9:36 PM 21.2 °F 10.9 °F 19.4 °F 93% 29.68 in 3.0 mi South 9.2 mph - 0.00 in Snow Light Snow
9:53 PM 21.9 °F 11.0 °F 19.9 °F 92% 29.71 in 2.5 mi SSE 10.4 mph - 0.01 in Snow Light Snow
10:07 PM 21.2 °F 10.9 °F 19.4 °F 93% 29.66 in 1.8 mi SSE 9.2 mph - 0.00 in Snow Light Snow
10:16 PM 21.2 °F 11.7 °F 19.4 °F 93% 29.66 in 1.5 mi South 8.1 mph - 0.00 in Snow Light Snow
10:22 PM 21.2 °F 11.7 °F 19.4 °F 93% 29.66 in 1.8 mi South 8.1 mph - 0.00 in Snow Light Snow
10:32 PM 21.2 °F 12.6 °F 19.4 °F 93% 29.66 in 2.5 mi South 6.9 mph - 0.00 in Snow Light Snow
10:41 PM 21.2 °F 11.7 °F 19.4 °F 93% 29.65 in 4.0 mi SSE 8.1 mph - 0.01 in Snow Light Snow
10:51 PM 21.2 °F 11.7 °F 19.4 °F 93% 29.65 in 2.5 mi SSE 8.1 mph - 0.01 in Snow Light Snow
10:53 PM 21.9 °F 11.7 °F 19.9 °F 92% 29.68 in 2.5 mi SSE 9.2 mph - 0.01 in Snow Light Snow
11:08 PM 21.2 °F 10.9 °F 19.4 °F 93% 29.64 in 5.0 mi SSE 9.2 mph - 0.00 in Snow Light Snow
11:53 PM 21.9 °F 11.7 °F 21.0 °F 96% 29.68 in 5.0 mi South 9.2 mph - 0.00 in Snow Light Snow